This demonstration page uses our WeatherBlox Daily Observations layout. Learn more.

Left ArrowRight Arrow

39.12711, -84.51439

Hourly Observations for September 10, 2022

Temp ( °F °C ) Dew Point ( °F °C ) Humidity (%) Winds ( mph kmh ) Pressure ( in mb ) Visibility ( mi km ) Precip ( " mm )
12:53 am 00:53 Clear with Mist and Fog 67 19.4 67 19.4 100 100 Calm 30.01 1016 5 8 0.00 0.00
1:53 am 01:53 Clear with Mist and Fog 66 18.9 66 18.9 100 100 Calm 30.01 1016 3 4 0.00 0.00
2:04 am 02:04 Clear with Mist and Fog 66 18.9 66 18.9 100 100 Calm 30.02 1017 4 6 0.00 0.00
2:39 am 02:39 Clear with Mist and Fog 66 18.9 66 18.9 100 100 Calm 30.02 1017 2 3 0.00 0.00
2:53 am 02:53 Clear with Mist and Fog 66 18.9 66 18.9 100 100 Calm 30.01 1016 2 3 0.00 0.00
3:01 am 03:01 Clear with Mist and Fog 66 18.9 66 18.9 100 100 Calm 30.02 1017 5 8 0.00 0.00
3:10 am 03:10 Clear with Mist and Fog 65 18.3 65 18.3 100 100 Calm 30.02 1017 1 2 0.00 0.00
3:37 am 03:37 Clear with Fog 65 18.3 65 18.3 100 100 Calm 30.03 1017 1 1 0.00 0.00
3:49 am 03:49 Clear with Mist and Fog 64 18 64 18 100 100 Calm 30.03 1017 3 5 0.00 0.00
3:53 am 03:53 Clear with Mist and Fog 65 18.3 65 18.3 100 100 Calm 30.03 1017 6 10 0.00 0.00
4:12 am 04:12 Mostly Clear with Mist and Fog 65 18.3 65 18.3 100 100 Calm 30.03 1017 1 2 0.00 0.00
4:15 am 04:15 Mostly Clear with Mist and Fog 65 18.3 65 18.3 100 100 Calm 30.03 1017 1 1 0.00 0.00
4:27 am 04:27 Clear with Mist and Fog 65 18.3 65 18.3 100 100 Calm 30.03 1017 1 1 0.00 0.00
4:36 am 04:36 Clear with Mist and Fog 65 18.3 65 18.3 100 100 Calm 30.03 1017 1 2 0.00 0.00
4:43 am 04:43 Clear with Fog 65 18.3 65 18.3 100 100 Calm 30.03 1017 1 1 0.00 0.00
4:58 am 04:58 Clear with Mist and Fog 64 17.8 64 17.8 100 100 Calm 30.03 1017 3 4 0.00 0.00
5:07 am 05:07 Clear with Mist and Fog 65 18.3 65 18.3 100 100 Calm 30.03 1017 1 1 0.00 0.00
5:53 am 05:53 Clear with Mist and Fog 64 17.8 64 17.8 100 100 Calm 30.03 1017 3 4 0.00 0.00
6:02 am 06:02 Clear with Mist and Fog 64 17.8 64 17.8 100 100 Calm 30.04 1017 6 10 0.00 0.00
6:25 am 06:25 Clear with Mist and Fog 64 17.8 64 17.8 100 100 Calm 30.04 1017 2 3 0.00 0.00
6:32 am 06:32 Clear with Mist and Fog 63 17.2 63 17.2 100 100 Calm 30.04 1017 1 1 0.00 0.00
6:43 am 06:43 Clear with Mist and Fog 64 17.8 64 17.8 100 100 Calm 30.04 1017 3 4 0.00 0.00
6:53 am 06:53 Clear with Mist and Fog 63 17.2 63 17.2 100 100 Calm 30.04 1017 5 8 0.00 0.00
6:57 am 06:57 Clear with Mist and Fog 63 17.2 63 17.2 100 100 Calm 30.05 1018 2 2 0.00 0.00
6:59 am 06:59 Mostly Clear with Mist and Fog 63 17.2 63 17.2 100 100 Calm 30.05 1018 6 10 0.00 0.00
7:53 am 07:53 Sunny with Mist and Fog 63 17.2 63 17.2 100 100 Calm 30.06 1018 6 10 0.00 0.00
8:53 am 08:53 Sunny 67 19.4 66 18.9 97 97 Calm 30.07 1018 10 16 0.00 0.00
9:53 am 09:53 Sunny 71 21.7 66 18.9 84 84 S 3 6 30.08 1019 10 16 0.00 0.00
10:53 am 10:53 Sunny 74 23.3 65 18.3 74 74 Calm 30.10 1019 10 16 0.00 0.00
11:39 am 11:39 Partly Cloudy 76 24.4 66 18.9 71 71 SSE 3 6 30.10 1019 10 16 0.00 0.00
11:53 am 11:53 Mostly Sunny 76 24.4 66 18.9 71 71 VRB 3 6 30.10 1019 10 16 0.00 0.00
12:53 pm 12:53 Sunny 78 25.6 67 19.4 69 69 SSE 6 9 30.09 1019 10 16 0.00 0.00
1:53 pm 13:53 Sunny 79 26.1 67 19.4 67 67 SE 6 9 30.08 1019 10 16 0.00 0.00
2:53 pm 14:53 Sunny 79 26.1 66 18.9 65 65 VRB 7 11 30.07 1018 10 16 0.00 0.00
3:53 pm 15:53 Sunny 79 26.1 66 18.9 65 65 SSE 8 13 30.06 1018 10 16 0.00 0.00
4:53 pm 16:53 Sunny 77 25 66 18.9 69 69 SSE 7 11 30.05 1018 10 16 0.00 0.00
5:53 pm 17:53 Sunny 76 24.4 67 19.4 74 74 SSE 7 11 30.05 1018 10 16 0.00 0.00
6:53 pm 18:53 Sunny 75 23.9 67 19.4 76 76 Calm 30.05 1018 10 16 0.00 0.00
7:53 pm 19:53 Sunny 74 23.3 67 19.4 79 79 SE 5 7 30.04 1017 10 16 0.00 0.00
8:53 pm 20:53 Clear 73 22.8 66 18.9 79 79 Calm 30.06 1018 10 16 0.00 0.00
9:53 pm 21:53 Clear 72 22.2 67 19.4 84 84 Calm 30.07 1018 10 16 0.00 0.00
10:53 pm 22:53 Partly Cloudy 71 21.7 67 19.4 87 87 Calm 30.09 1019 10 16 0.00 0.00
11:53 pm 23:53 Clear 71 21.7 67 19.4 87 87 Calm 30.08 1019 10 16 0.00 0.00

Powered by AerisWeather